Jerez de la Frontera, Spain

7:36 PM CEST on March 28, 2017 (GMT +0200)
Jerez

Weather History for LEJR - July, 2013

Change the Weather History Date:

Wednesday, July 17, 2013

  Actual Average Record
Temperature  
Mean Temperature 81 °F -  
Max Temperature 99 °F 88 °F 104 °F (2015)
Min Temperature 63 °F 63 °F 55 °F (2003)
Cooling Degree Days 16    
Growing Degree Days 31 (Base 50)    
Moisture  
Dew Point 59 °F    
Average Humidity 49    
Maximum Humidity 88    
Minimum Humidity 14    
Precipitation  
Precipitation 0.00 in 0.00 in - ()
Sea Level Pressure  
Sea Level Pressure 30.06 in    
Wind  
Wind Speed 3 mph ()    
Max Wind Speed 22 mph    
Max Gust Speed -    
Visibility 14.5 miles    
Events      
Averages and records for this station are not official NWS values.
T = Trace of Precipitation, MM = Missing Value Source: Averaged Metar Reports

Daily Weather History Graph

Daily Weather History Graph

Search for Another Location

Airport or City:

Trip Planner

Search our weather history database for the weather conditions in past years. The results will help you decide how hot, cold, wet, or windy it might be!

Date:

Astronomy

Jul. 17, 2013 Rise Set
Actual Time 7:18 AM CEST 9:41 PM CEST
Civil Twilight 6:48 AM CEST 10:11 PM CEST
Nautical Twilight 6:12 AM CEST 10:48 PM CEST
Astronomical Twilight 5:31 AM CEST 11:28 PM CEST
Moon 4:17 PM CEST (7/17) 2:13 AM CEST (7/17)
Length of Visible Light 15h 22m
Length of Day
14h 23m
Waxing Gibbous, 64% of the Moon is Illuminated
Jul 17
Waxing Gibbous
Jul 22
Full
Jul 29
Last Quarter
Aug 6
New
Aug 14
First Quarter

Hourly Weather History & Observations

Time (CEST) Temp. Heat Index Dew Point Humidity Pressure Visibility Wind Dir Wind Speed Gust Speed Precip Events Conditions
12:00 AM 74 °F - 63 °F 61% 30.09 in - Calm Calm - -  
1:00 AM 72 °F - 63 °F 65% 30.10 in - SSW 2.3 mph - -  
2:00 AM 69 °F - 63 °F 76% 30.10 in 12 mi NE 3.5 mph - -  
3:00 AM 66 °F - 62 °F 83% 30.09 in - East 2.3 mph - -  
4:00 AM 66 °F - 61 °F 79% 30.08 in - East 2.3 mph - -  
5:00 AM 65 °F - 61 °F 81% 30.07 in 12 mi Calm Calm - -  
5:00 AM 66.2 °F - 60.8 °F 83% 30.06 in - Calm Calm - N/A   Clear
5:30 AM 66.2 °F - 60.8 °F 83% 30.06 in - Calm Calm - N/A   Clear
6:00 AM 64 °F - 61 °F 85% 30.07 in - ENE 2.3 mph - -  
6:00 AM 64.4 °F - 60.8 °F 88% 30.06 in - Variable 2.3 mph - N/A   Clear
6:30 AM 64.4 °F - 60.8 °F 88% 30.06 in - East 3.5 mph - N/A   Clear
7:00 AM 64 °F - 60 °F 83% 30.08 in - ENE 2.3 mph - -  
7:00 AM 64.4 °F - 60.8 °F 88% 30.06 in - Variable 2.3 mph - N/A   Clear
7:30 AM 64.4 °F - 60.8 °F 88% 30.06 in - Variable 1.2 mph - N/A   Clear
8:00 AM 66 °F - 61 °F 78% 30.08 in 19 mi Calm Calm - -  
8:00 AM 66.2 °F - 60.8 °F 83% 30.06 in - Calm Calm - N/A   Clear
8:30 AM 69.8 °F - 62.6 °F 78% 30.06 in - Calm Calm - N/A   Clear
9:00 AM 73 °F - 62 °F 61% 30.09 in - Calm Calm - -  
9:00 AM 71.6 °F - 62.6 °F 73% 30.06 in - Calm Calm - N/A   Clear
9:30 AM 75.2 °F - 62.6 °F 65% 30.06 in - Calm Calm - N/A   Clear
10:00 AM 80 °F - 60 °F 41% 30.09 in - Calm Calm - -  
10:00 AM 77.0 °F - 62.6 °F 61% 30.09 in - Calm Calm - N/A   Clear
10:30 AM 82.4 °F 82.9 °F 60.8 °F 48% 30.09 in - Calm Calm - N/A   Clear
11:00 AM 86 °F - 54 °F 24% 30.09 in 16 mi NNW 1.2 mph - -  
11:00 AM 84.2 °F 83.5 °F 57.2 °F 40% 30.09 in - Calm Calm - N/A   Clear
11:30 AM 86.0 °F 84.9 °F 57.2 °F 37% 30.09 in - Calm Calm - N/A   Clear
12:00 PM 91 °F - 55 °F 20% 30.09 in - East 2.3 mph - -  
12:00 PM 89.6 °F 87.3 °F 53.6 °F 29% 30.09 in - Variable 1.2 mph - N/A   Clear
12:30 PM 89.6 °F 87.7 °F 55.4 °F 31% 30.06 in - Variable 2.3 mph - N/A   Clear
1:00 PM 94 °F - 56 °F 19% 30.08 in - East 2.3 mph - -  
1:00 PM 93.2 °F 91.9 °F 57.2 °F 30% 30.06 in - Variable 2.3 mph - N/A   Clear
1:30 PM 93.2 °F 91.3 °F 55.4 °F 28% 30.06 in - Variable 2.3 mph - N/A   Clear
2:00 PM 96 °F - 54 °F 15% 30.07 in 16 mi ESE 4.5 mph - -  
2:00 PM 93.2 °F 91.3 °F 55.4 °F 28% 30.06 in - Variable 2.3 mph - N/A   Clear
2:30 PM 96.8 °F - 51.8 °F 22% 30.06 in - Variable 1.2 mph - N/A   Clear
3:00 PM 97 °F - 53 °F 14% 30.05 in - NE 3.5 mph - -  
3:00 PM 96.8 °F 95.1 °F 55.4 °F 25% 30.04 in - Variable 2.3 mph - N/A   Clear
3:30 PM 96.8 °F 94.4 °F 53.6 °F 23% 30.04 in - Variable 3.5 mph - N/A   Clear
4:00 PM 97 °F - 60 °F 20% 30.04 in - WSW 22.4 mph - -  
4:00 PM 95.0 °F 95.2 °F 60.8 °F 32% 30.04 in - WSW 11.5 mph - N/A   Clear
4:30 PM 95.0 °F 96.0 °F 62.6 °F 34% 30.04 in - WSW 11.5 mph - N/A   Clear
5:00 PM 93.2 °F 93.3 °F 60.8 °F 34% 30.04 in - WSW 10.4 mph - N/A   Clear
5:30 PM 93.2 °F 93.3 °F 60.8 °F 34% 30.04 in - WSW 11.5 mph - N/A   Clear
6:00 PM 94 °F - 60 °F 22% 30.03 in - WSW 20.1 mph - -  
6:00 PM 93.2 °F 93.3 °F 60.8 °F 34% 30.04 in - WSW 9.2 mph - N/A   Clear
6:30 PM 91.4 °F 90.7 °F 59.0 °F 34% 30.01 in - West 9.2 mph - N/A   Clear
7:00 PM 91.4 °F 90.7 °F 59.0 °F 34% 30.01 in - WSW 10.4 mph - N/A   Clear
7:30 PM 89.6 °F 88.9 °F 59.0 °F 36% 30.01 in - WSW 10.4 mph - N/A   Clear
8:00 PM 89 °F - 56 °F 23% 30.03 in 12 mi WSW 11.5 mph - -  
8:00 PM 87.8 °F 86.1 °F 55.4 °F 33% 30.04 in - WSW 11.5 mph - N/A   Clear
8:30 PM 86.0 °F 84.9 °F 57.2 °F 37% 30.04 in - WSW 9.2 mph - N/A   Clear
9:00 PM 84.2 °F 83.5 °F 57.2 °F 40% 30.04 in - WSW 9.2 mph - N/A   Clear
9:30 PM 80.6 °F 80.8 °F 57.2 °F 45% 30.04 in - SW 6.9 mph - N/A   Clear
10:00 PM 80.6 °F 81.1 °F 59.0 °F 48% 30.04 in - SW 5.8 mph - N/A   Clear
10:30 PM 78.8 °F - 60.8 °F 54% 30.04 in - WSW 4.6 mph - N/A   Clear
11:00 PM 77.0 °F - 60.8 °F 57% 30.06 in - Variable 2.3 mph - N/A   Clear